Flag for Poland Weather past 2 weeks in Lidzbark Warmiński, Poland

Now
57 °F

Light rain. Overcast.


Feels Like: 57 °F
Forecast: 46 / 61 °F
Wind: 1 mph from Northwest

Location: Ketrzyn

Current Time: Sep 30, 2014 at 12:19:41 PM

Latest Report: Sep 30, 2014 at 11:00 AM


Visibility: 5 mi

Pressure: 30.22 "Hg

Humidity: 92%

Dew point: 54 °F

Location of Lidzbark WarmińskiLocation

Historic Weather in Lidzbark Warmiński — Graph

°F

Lidzbark Warmiński temperature yesterday

Maximum temperature yesterday: 67 °F (at 3:00 PM)
Minimum temperature yesterday: 49 °F (at 6:00 AM)
Average temperature yesterday: 57 °F

Past Weeks' High & Low Weather Summary

 TemperatureHumidityPressure
High72 °F (Sep 18, 3:00 PM)97% (Sep 30, 6:00 AM)30.34 "Hg (Sep 30, 6:00 AM)
Low39 °F (Sep 24, 5:00 AM)34% (Sep 15, 4:00 PM)29.58 "Hg (Sep 22, 5:00 AM)
Average55 °F74%30.04 "Hg
* Reported Sep 15 11:00 AM — Sep 30 11:00 AM, Lidzbark Warmiński, Weather by CustomWeather, © 2014

Note: Actual official high and low records may vary slightly from our data, if they occured in-between our weather recording intervals... More about our weather records

Advertising

Lidzbark Warmiński weather history for previous 24 hours

 ConditionsComfort  
Time TempWeatherWind HumidityBarometerVisibility
11:00 AM
Sep 30
57 °FLight rain. Overcast.1 mph92%30.22 "Hg5 mi
10:00 AM56 °FFog.1 mph89%30.22 "Hg6 mi
9:00 AM54 °FFog.1 mph91%30.21 "Hg6 mi
8:00 AM51 °FFog.No wind93%30.20 "Hg5 mi
7:00 AM49 °FFog.2 mph96%30.19 "Hg4 mi
6:00 AM49 °FFog.2 mph97%30.19 "Hg2 mi
5:00 AM49 °FFog.1 mph96%30.19 "Hg2 mi
4:00 AM50 °FFog.1 mph94%30.18 "Hg3 mi
3:00 AM51 °FFog.1 mph93%30.18 "Hg4 mi
2:00 AM51 °FFog.1 mph93%30.18 "Hg6 mi
1:00 AM49 °FFog.1 mph92%30.18 "Hg5 mi
12:00 AM50 °FFog.1 mph94%30.19 "Hg4 mi
11:00 PM
Sep 29
50 °FClear.1 mph91%30.19 "Hg6 mi
10:00 PM52 °FClear.No wind89%30.18 "Hg6 mi
9:00 PM54 °FPassing clouds.1 mph84%30.19 "Hg6 mi
8:00 PM56 °FPassing clouds.1 mph78%30.19 "Hg7 mi
7:00 PM58 °FPassing clouds.2 mph71%30.19 "Hg12 mi
6:00 PM62 °FScattered clouds.5 mph62%30.18 "Hg15 mi
5:00 PM64 °FPartly sunny.3 mph59%30.18 "Hg22 mi
4:00 PM66 °FScattered clouds.5 mph55%30.18 "Hg17 mi
3:00 PM67 °FScattered clouds.6 mph55%30.18 "Hg19 mi
2:00 PM66 °FScattered clouds.6 mph53%30.19 "Hg19 mi
1:00 PM66 °FScattered clouds.6 mph48%30.19 "Hg18 mi
12:00 PM65 °FScattered clouds.5 mph54%30.21 "Hg19 mi
Weather by CustomWeather, © 2014

See weather overviewHow to use our weather pages